SCP
0 0 0 0 0 0 0 0 0 0 0 0 0 0 0 0 0 0 0 0 0 0 0 0 0 -0 -0 -0 -0 0 0 0 0 0 0 0 0 0 0 0 0 0 0
0 0 0 0 0 0 0 0 0 0 0 0 0 0 0 0 0 0 0 0 0 0 0 0 0 0 0 -0 -0 -0 0 0 0 0 0 0 0 0 0 0 0 0 0
0 0 0 0 0 0 0 0 0 0 0 0 0 0 0 0 0 0 0 0 0 0 0 0 0 0 0 0 -0 -0 -0 -0 0 0 0 0 0 0 0 0 0 0 0
0 0 0 0 0 0 0 0 0 0 0 0 0 0 0 0 0 0 0 0 0 0 0 -0 -0 -0 -0 -0 0 0 0 0 0 -0 0 0 0 0 0 0 0 0 0
0 0 0 0 0 0 0 0 0 0 0 0 0 0 0 0 0 0 0 0 0 0 0 -0 -0 -0 0 0 -0 -0 0 0 0 0 -0 -0 -0 0 0 0 0 0 0
0 0 0 0 0 0 0 0 0 0 0 0 0 0 0 0 0 0 0 -0 -0 0 0 -0 -0 0 -0 0 0 -0 0 0 0 0 0 0 0 0 -0 0 0 0 0
0 0 0 0 0 0 0 0 0 0 0 0 0 0 0 0 0 0 0 -0 -0 -0 -0 -0 0 -0 0 -0 0 0 0 0 0 0 0 0 0 0 0 0 -0 -0 0
0 0 0 0 0 0 0 0 0 0 0 0 0 0 0 0 0 0 0 -0 -0 -0 -0 -0 0 0 0 0 0 0 0 0 0 0 0 0 0 0 0 0 0 -0 -0
-0 0 0 0 0 0 0 0 0 0 0 0 0 0 0 0 0 0 0 -0 0 0 -0 -0 -0 0 0 0 0 0 0 0 0 0 0 0 0 0 0 0 0 0 0
0 0 0 0 0 0 0 0 0 0 0 0 0 0 0 0 0 0 0 0 0 0 0 -0 0 0 0 0 0 0 0 0 0 0 0 0 0 0 0 0 0 0 0
0 0 0 0 0 0 0 0 0 0 0 0 0 0 0 0 0 0 0 0 0 0 0 -0 -0 0 0 0 0 -0 -0 -0 0 0 0 0 0 0 0 0 0 0 0
0 0 0 0 0 0 0 0 0 0 0 0 0 0 0 0 0 0 0 0 0 0 0 -0 0 0 0 0 0 0 0 0 -0 0 -0 0 0 0 0 0 0 -0 -0
0 0 0 0 0 0 0 0 0 0 0 0 0 0 0 0 0 0 0 0 0 0 0 0 0 0 0 0 0 0 0 0 0 0 0 -0 -0 -0 -0 -0 0 -0 0
0 0 0 0 0 0 0 0 0 0 0 0 0 0 0 0 0 0 0 0 0 0 0 0 0 0 0 0 0 0 0 0 0 0 0 0 0 0 0 0 0 0 0
0 0 0 0 0 0 0 0 0 0 0 0 0 0 0 0 0 0 0 0 0 0 0 0 0 0 0 0 0 0 0 0 0 0 0 0 0 0 0 0 0 0 0
0 0 0 0 0 0 0 0 0 0 0 0 0 0 0 0 0 0 0 0 0 0 0 0 0 0 0 0 0 0 0 0 0 0 0 0 0 0 0 0 0 0 0
0 0 0 0 0 0 0 0 0 0 0 0 0 0 0 0 0 0 0 0 0 0 0 0 0 0 0 0 0 0 0 0 0 0 0 0 0 0 0 0 0 0 0
0 0 0 0 0 0 0 0 0 0 0 0 0 0 0 0 0 0 0 0 0 0 0 0 0 0 0 0 0 0 0 0 0 0 0 0 0 0 0 0 0 0 0
0 0 0 0 0 0 0 0 0 0 0 0 0 0 0 0 0 0 0 0 0 0 0 0 0 0 0 0 0 0 0 0 0 0 0 0 0 0 0 0 0 0 0
0 0 0 0 0 0 0 0 0 0 0 0 0 0 0 0 0 0 0 0 0 0 0 0 0 0 0 0 0 0 0 0 0 0 0 0 0 0 0 0 0 0 0
0 0 0 0 0 0 0 0 0 0 0 0 0 0 0 0 0 0 0 0 0 0 0 0 0 0 0 0 0 0 0 0 0 0 0 0 0 0 0 0 0 0 0
0 0 0 0 0 0 0 0 0 0 0 0 0 0 0 0 0 0 0 0 0 0 0 0 0 0 0 0 0 0 0 0 0 0 0 0 0 0 0 0 0 0 0
0 0 0 0 0 0 0 0 0 0 0 0 0 0 0 0 0 0 0 0 0 0 0 0 0 0 0 0 0 0 0 0 0 0 0 0 0 0 0 0 0 0 0
0 0 0 0 0 0 0 0 0 0 0 0 0 0 0 0 0 0 0 0 0 0 0 0 0 0 0 0 0 0 0 0 0 0 0 0 0 0 0 0 0 0 0
0 0 0 0 0 0 0 0 0 0 0 0 0 0 0 0 0 0 0 0 0 0 0 0 0 0 0 0 0 0 0 0 0 0 0 0 0 0 0 0 0 0 0
0 0 0 0 0 0 0 0 0 0 0 0 0 0 0 0 0 0 0 0 0 0 0 0 0 0 0 0 0 0 0 0 0 0 0 0 0 0 0 0 0 0 0
Wind_Speed_500mb
13 9 5 2 6 10 11 12 15 19 21 24 29 30 32 35 37 38 39 40 42 45 47 48 50 52 52 48 39 30 28 17 5 13 13 13 9 14 14 13 9 13 18
18 13 5 5 7 8 12 14 17 17 20 23 25 28 30 34 37 39 41 42 44 47 48 49 52 49 50 50 50 46 39 29 24 23 22 25 28 27 27 21 22 22 23
19 12 7 5 7 9 12 15 17 18 18 21 22 22 27 32 36 38 39 40 42 46 47 50 51 51 53 49 46 43 41 35 29 32 31 29 30 30 32 32 32 34 32
20 14 8 6 6 7 13 14 15 17 19 19 20 20 24 29 33 37 39 39 42 43 44 48 52 54 55 51 50 45 38 33 32 31 35 35 29 26 30 31 31 32 36
25 18 12 7 7 7 10 12 15 17 17 18 20 21 23 27 32 34 36 37 40 41 43 46 50 51 51 51 50 48 46 44 41 39 38 35 35 38 38 28 11 21 29
27 21 15 10 7 7 8 12 13 14 16 17 19 22 24 29 30 32 34 38 41 43 45 44 44 46 48 48 48 47 46 47 48 46 46 43 37 32 29 36 31 10 8
29 23 17 11 7 7 10 11 11 11 14 16 20 21 24 28 30 32 34 37 41 45 45 45 45 44 44 45 44 44 45 47 47 45 45 46 38 33 28 25 32 30 26
32 24 19 13 9 8 10 8 8 10 12 15 19 21 21 24 26 29 33 36 39 42 44 44 45 45 45 43 41 43 45 46 47 43 40 39 37 33 28 24 16 17 25
33 25 20 15 10 9 9 8 7 8 9 11 14 16 20 21 21 23 26 30 33 36 37 41 41 43 42 41 40 41 44 47 41 37 34 31 30 27 27 19 25 15 12
31 23 19 15 12 11 10 10 8 7 6 8 11 13 17 19 18 17 22 27 30 33 34 35 38 40 42 43 43 43 44 45 36 31 30 30 33 34 34 37 36 37 31
28 23 21 18 15 14 13 12 10 7 4 4 9 12 15 16 16 17 18 24 29 30 31 31 31 33 38 40 42 42 43 36 35 33 33 36 38 40 41 41 40 39 38
28 24 22 21 21 19 17 14 11 7 3 5 8 12 13 12 12 16 20 24 25 26 29 28 27 30 31 37 35 34 35 35 35 35 35 39 42 44 43 39 37 37 37
29 25 24 24 24 22 18 14 11 8 7 7 10 13 12 10 11 13 16 17 18 22 27 25 26 30 32 33 35 34 32 32 34 37 39 39 40 38 32 28 28 26 25
28 29 29 29 27 24 20 15 13 11 11 11 12 12 9 7 8 9 11 15 18 23 28 30 31 31 32 31 28 30 32 33 33 33 32 33 33 35 36 34 32 28 26
29 31 31 30 28 25 22 17 13 13 12 13 12 11 8 6 5 9 14 18 22 25 27 28 29 30 33 31 29 28 28 28 29 30 30 31 33 34 35 36 36 37 38
31 33 32 30 28 26 22 18 13 13 12 12 11 11 11 9 7 6 10 18 22 26 30 33 34 35 36 35 34 33 33 31 30 31 32 33 33 35 36 36 35 37 39
22 26 29 29 27 25 22 20 15 13 14 15 15 16 15 13 12 11 14 19 22 29 32 33 35 37 37 37 36 36 34 33 34 34 33 33 34 34 36 37 38 38 38
15 18 23 22 22 20 18 18 18 18 18 18 19 22 20 20 19 18 19 22 26 30 34 35 37 38 38 37 36 35 33 35 35 35 36 37 36 36 36 36 37 38 39
18 18 19 19 17 16 18 21 25 25 26 24 25 23 20 21 25 25 24 26 28 33 34 36 38 38 38 36 35 34 36 37 37 38 39 38 38 37 35 34 35 34 34
19 16 16 20 24 27 29 31 32 31 29 29 27 22 22 22 25 25 29 29 30 34 35 38 39 39 37 35 33 34 36 36 39 39 39 38 37 38 38 37 35 35 32
17 17 20 24 28 31 32 31 29 29 30 26 20 20 22 23 23 26 28 28 33 35 37 39 40 39 36 34 34 36 36 39 39 39 40 40 40 38 36 35 34 32 30
18 19 22 24 25 26 26 27 29 26 22 18 18 20 24 27 26 26 28 33 35 37 38 39 39 36 34 34 36 37 38 38 38 39 39 39 39 38 37 34 31 29 27
20 22 23 23 23 23 21 20 19 17 17 19 22 25 27 28 27 28 32 35 38 39 40 38 35 33 32 34 35 37 37 37 39 40 40 38 38 37 33 31 30 27 25
21 20 19 19 19 16 15 14 16 20 22 24 24 22 25 26 29 32 36 39 39 39 38 35 32 31 33 34 35 36 36 38 38 39 39 38 37 35 33 29 27 26 26
20 19 18 17 16 16 16 17 18 20 22 21 19 21 25 29 33 38 40 39 38 35 33 31 31 32 33 34 35 35 36 39 40 40 39 39 36 31 28 25 24 25 27
17 17 17 18 18 17 16 17 18 18 18 19 22 26 31 36 38 38 37 36 33 30 29 30 32 32 33 34 36 36 38 39 39 40 40 38 32 24 23 21 24 29 30
Wind_Direction_500mb
205 209 221 61 42 37 37 41 43 39 36 35 35 36 37 37 37 35 36 34 36 40 41 43 40 38 39 36 33 42 50 64 89 37 20 31 14 42 32 29 35 33 42
208 209 184 100 73 53 45 44 45 41 37 36 34 33 38 41 38 38 38 39 39 41 44 46 45 42 41 41 39 40 49 70 77 67 55 47 45 51 61 62 57 61 63
202 196 172 127 86 60 51 49 46 45 42 40 37 34 41 44 42 39 39 42 43 42 41 46 48 47 46 44 44 45 48 53 63 74 73 72 70 59 55 57 60 65 69
199 192 179 130 100 59 53 58 53 50 46 45 49 46 49 50 48 41 40 40 43 44 44 46 44 43 45 47 49 49 50 55 59 60 64 64 65 62 62 54 53 53 57
198 192 179 151 116 78 66 71 65 57 52 50 55 56 56 55 51 47 42 42 47 46 45 44 45 42 42 43 45 50 52 54 57 57 55 55 51 47 46 44 49 45 46
190 190 183 165 130 96 89 87 77 69 64 61 61 58 57 58 53 47 43 42 44 46 45 45 45 45 41 40 40 42 46 48 50 48 49 47 41 37 36 38 34 49 28
189 188 181 165 134 120 115 104 91 82 76 71 66 61 57 54 50 46 43 41 42 44 44 44 45 46 42 39 39 41 43 45 44 42 41 41 36 33 26 26 32 34 48
191 187 179 171 162 152 144 125 109 89 78 69 64 58 53 53 47 44 41 38 37 39 40 39 41 43 42 37 36 37 38 40 39 37 36 36 36 33 26 25 22 28 42
193 186 180 177 179 173 165 158 136 103 84 71 62 52 48 45 44 43 41 40 39 40 40 35 37 36 38 39 36 41 41 41 36 34 30 28 30 34 37 39 47 30 25
186 180 179 186 189 188 187 180 166 140 108 77 59 47 37 34 39 39 40 38 36 36 35 35 35 37 34 31 30 34 37 39 34 33 35 33 30 31 33 36 38 41 41
179 180 188 192 195 194 193 187 179 159 121 67 50 35 26 17 23 31 38 30 34 29 30 31 32 27 24 26 26 28 33 29 28 26 31 34 33 33 32 29 29 30 33
185 189 195 200 201 197 192 196 192 194 213 346 8 18 9 9 13 23 25 25 24 18 27 21 11 8 8 5 17 20 17 12 13 18 24 31 34 35 31 28 27 24 21
190 199 204 202 198 197 205 205 210 234 258 306 331 349 356 2 3 15 18 16 18 14 17 12 2 357 357 358 1 4 6 6 6 6 18 23 25 26 28 36 34 29 23
200 202 200 200 201 205 208 217 228 243 257 282 304 316 323 333 337 347 7 23 19 10 11 6 357 352 351 352 354 357 357 358 358 359 4 4 0 360 4 10 11 12 12
204 200 199 203 206 207 210 217 230 245 257 281 292 278 278 287 308 347 355 18 11 4 0 351 347 350 354 356 356 354 353 350 350 352 351 349 348 348 351 353 356 359 2
203 201 203 206 207 209 212 217 236 246 260 274 280 278 281 276 283 352 329 342 349 352 351 346 349 350 350 352 350 348 348 349 350 349 346 343 342 341 341 342 343 346 350
201 207 209 210 213 216 223 227 236 245 258 265 268 275 273 276 282 302 303 324 334 341 342 343 344 345 345 345 342 343 344 346 346 344 340 339 338 335 332 332 332 333 334
199 210 214 215 217 221 233 235 242 256 269 271 273 274 265 265 273 286 289 310 323 329 333 336 338 338 338 337 337 338 340 341 341 340 338 337 336 333 330 328 327 328 328
212 210 203 207 217 229 235 238 244 252 259 263 274 267 260 263 271 278 284 299 311 320 325 328 329 330 331 332 334 336 337 337 337 336 335 336 335 333 333 331 328 327 325
210 210 219 230 236 242 246 248 250 253 256 263 266 260 255 261 272 281 277 289 306 316 320 322 324 325 327 329 331 332 333 333 332 333 334 335 335 333 331 329 327 325 323
209 220 235 240 243 248 249 249 251 254 261 257 257 254 257 270 276 273 271 288 305 311 315 317 319 321 323 326 328 329 330 330 331 331 331 331 331 330 329 328 327 325 322
224 237 247 250 241 235 239 249 254 254 249 250 258 268 267 266 276 271 277 293 302 307 311 313 316 318 321 324 325 327 327 328 327 326 327 328 329 329 327 326 325 323 319
237 252 251 240 237 239 243 248 246 244 248 262 270 268 263 268 270 275 286 294 301 305 308 312 314 316 319 322 323 323 324 323 323 323 325 326 326 325 324 324 322 321 315
250 247 236 229 232 238 249 245 245 249 255 269 273 267 260 267 274 282 290 296 300 303 307 309 313 316 319 320 320 321 321 320 320 318 320 321 322 321 321 323 323 324 321
242 233 229 231 235 243 244 247 255 258 267 269 266 264 270 278 284 289 293 296 300 304 306 310 314 317 318 319 321 321 320 319 319 319 319 318 317 312 315 320 324 330 330
232 225 224 230 237 241 246 256 263 264 266 267 270 276 282 286 289 292 294 298 300 303 307 312 315 316 319 321 321 320 319 318 318 317 317 316 311 304 307 313 318 324 329
Wind_Speed_850mb
13 9 5 2 6 10 11 12 15 19 21 24 29 30 32 35 37 38 39 40 42 45 47 48 50 52 52 48 39 30 28 17 5 13 13 13 9 14 14 13 9 13 18
18 13 5 5 7 8 12 14 17 17 20 23 25 28 30 34 37 39 41 42 44 47 48 49 52 49 50 50 50 46 39 29 24 23 22 25 28 27 27 21 22 22 23
19 12 7 5 7 9 12 15 17 18 18 21 22 22 27 32 36 38 39 40 42 46 47 50 51 51 53 49 46 43 41 35 29 32 31 29 30 30 32 32 32 34 32
20 14 8 6 6 7 13 14 15 17 19 19 20 20 24 29 33 37 39 39 42 43 44 48 52 54 55 51 50 45 38 33 32 31 35 35 29 26 30 31 31 32 36
25 18 12 7 7 7 10 12 15 17 17 18 20 21 23 27 32 34 36 37 40 41 43 46 50 51 51 51 50 48 46 44 41 39 38 35 35 38 38 28 11 21 29
27 21 15 10 7 7 8 12 13 14 16 17 19 22 24 29 30 32 34 38 41 43 45 44 44 46 48 48 48 47 46 47 48 46 46 43 37 32 29 36 31 10 8
29 23 17 11 7 7 10 11 11 11 14 16 20 21 24 28 30 32 34 37 41 45 45 45 45 44 44 45 44 44 45 47 47 45 45 46 38 33 28 25 32 30 26
32 24 19 13 9 8 10 8 8 10 12 15 19 21 21 24 26 29 33 36 39 42 44 44 45 45 45 43 41 43 45 46 47 43 40 39 37 33 28 24 16 17 25
33 25 20 15 10 9 9 8 7 8 9 11 14 16 20 21 21 23 26 30 33 36 37 41 41 43 42 41 40 41 44 47 41 37 34 31 30 27 27 19 25 15 12
31 23 19 15 12 11 10 10 8 7 6 8 11 13 17 19 18 17 22 27 30 33 34 35 38 40 42 43 43 43 44 45 36 31 30 30 33 34 34 37 36 37 31
28 23 21 18 15 14 13 12 10 7 4 4 9 12 15 16 16 17 18 24 29 30 31 31 31 33 38 40 42 42 43 36 35 33 33 36 38 40 41 41 40 39 38
28 24 22 21 21 19 17 14 11 7 3 5 8 12 13 12 12 16 20 24 25 26 29 28 27 30 31 37 35 34 35 35 35 35 35 39 42 44 43 39 37 37 37
29 25 24 24 24 22 18 14 11 8 7 7 10 13 12 10 11 13 16 17 18 22 27 25 26 30 32 33 35 34 32 32 34 37 39 39 40 38 32 28 28 26 25
28 29 29 29 27 24 20 15 13 11 11 11 12 12 9 7 8 9 11 15 18 23 28 30 31 31 32 31 28 30 32 33 33 33 32 33 33 35 36 34 32 28 26
29 31 31 30 28 25 22 17 13 13 12 13 12 11 8 6 5 9 14 18 22 25 27 28 29 30 33 31 29 28 28 28 29 30 30 31 33 34 35 36 36 37 38
31 33 32 30 28 26 22 18 13 13 12 12 11 11 11 9 7 6 10 18 22 26 30 33 34 35 36 35 34 33 33 31 30 31 32 33 33 35 36 36 35 37 39
22 26 29 29 27 25 22 20 15 13 14 15 15 16 15 13 12 11 14 19 22 29 32 33 35 37 37 37 36 36 34 33 34 34 33 33 34 34 36 37 38 38 38
15 18 23 22 22 20 18 18 18 18 18 18 19 22 20 20 19 18 19 22 26 30 34 35 37 38 38 37 36 35 33 35 35 35 36 37 36 36 36 36 37 38 39
18 18 19 19 17 16 18 21 25 25 26 24 25 23 20 21 25 25 24 26 28 33 34 36 38 38 38 36 35 34 36 37 37 38 39 38 38 37 35 34 35 34 34
19 16 16 20 24 27 29 31 32 31 29 29 27 22 22 22 25 25 29 29 30 34 35 38 39 39 37 35 33 34 36 36 39 39 39 38 37 38 38 37 35 35 32
17 17 20 24 28 31 32 31 29 29 30 26 20 20 22 23 23 26 28 28 33 35 37 39 40 39 36 34 34 36 36 39 39 39 40 40 40 38 36 35 34 32 30
18 19 22 24 25 26 26 27 29 26 22 18 18 20 24 27 26 26 28 33 35 37 38 39 39 36 34 34 36 37 38 38 38 39 39 39 39 38 37 34 31 29 27
20 22 23 23 23 23 21 20 19 17 17 19 22 25 27 28 27 28 32 35 38 39 40 38 35 33 32 34 35 37 37 37 39 40 40 38 38 37 33 31 30 27 25
21 20 19 19 19 16 15 14 16 20 22 24 24 22 25 26 29 32 36 39 39 39 38 35 32 31 33 34 35 36 36 38 38 39 39 38 37 35 33 29 27 26 26
20 19 18 17 16 16 16 17 18 20 22 21 19 21 25 29 33 38 40 39 38 35 33 31 31 32 33 34 35 35 36 39 40 40 39 39 36 31 28 25 24 25 27
17 17 17 18 18 17 16 17 18 18 18 19 22 26 31 36 38 38 37 36 33 30 29 30 32 32 33 34 36 36 38 39 39 40 40 38 32 24 23 21 24 29 30
Wind_Direction_850mb
205 209 221 61 42 37 37 41 43 39 36 35 35 36 37 37 37 35 36 34 36 40 41 43 40 38 39 36 33 42 50 64 89 37 20 31 14 42 32 29 35 33 42
208 209 184 100 73 53 45 44 45 41 37 36 34 33 38 41 38 38 38 39 39 41 44 46 45 42 41 41 39 40 49 70 77 67 55 47 45 51 61 62 57 61 63
202 196 172 127 86 60 51 49 46 45 42 40 37 34 41 44 42 39 39 42 43 42 41 46 48 47 46 44 44 45 48 53 63 74 73 72 70 59 55 57 60 65 69
199 192 179 130 100 59 53 58 53 50 46 45 49 46 49 50 48 41 40 40 43 44 44 46 44 43 45 47 49 49 50 55 59 60 64 64 65 62 62 54 53 53 57
198 192 179 151 116 78 66 71 65 57 52 50 55 56 56 55 51 47 42 42 47 46 45 44 45 42 42 43 45 50 52 54 57 57 55 55 51 47 46 44 49 45 46
190 190 183 165 130 96 89 87 77 69 64 61 61 58 57 58 53 47 43 42 44 46 45 45 45 45 41 40 40 42 46 48 50 48 49 47 41 37 36 38 34 49 28
189 188 181 165 134 120 115 104 91 82 76 71 66 61 57 54 50 46 43 41 42 44 44 44 45 46 42 39 39 41 43 45 44 42 41 41 36 33 26 26 32 34 48
191 187 179 171 162 152 144 125 109 89 78 69 64 58 53 53 47 44 41 38 37 39 40 39 41 43 42 37 36 37 38 40 39 37 36 36 36 33 26 25 22 28 42
193 186 180 177 179 173 165 158 136 103 84 71 62 52 48 45 44 43 41 40 39 40 40 35 37 36 38 39 36 41 41 41 36 34 30 28 30 34 37 39 47 30 25
186 180 179 186 189 188 187 180 166 140 108 77 59 47 37 34 39 39 40 38 36 36 35 35 35 37 34 31 30 34 37 39 34 33 35 33 30 31 33 36 38 41 41
179 180 188 192 195 194 193 187 179 159 121 67 50 35 26 17 23 31 38 30 34 29 30 31 32 27 24 26 26 28 33 29 28 26 31 34 33 33 32 29 29 30 33
185 189 195 200 201 197 192 196 192 194 213 346 8 18 9 9 13 23 25 25 24 18 27 21 11 8 8 5 17 20 17 12 13 18 24 31 34 35 31 28 27 24 21
190 199 204 202 198 197 205 205 210 234 258 306 331 349 356 2 3 15 18 16 18 14 17 12 2 357 357 358 1 4 6 6 6 6 18 23 25 26 28 36 34 29 23
200 202 200 200 201 205 208 217 228 243 257 282 304 316 323 333 337 347 7 23 19 10 11 6 357 352 351 352 354 357 357 358 358 359 4 4 0 360 4 10 11 12 12
204 200 199 203 206 207 210 217 230 245 257 281 292 278 278 287 308 347 355 18 11 4 0 351 347 350 354 356 356 354 353 350 350 352 351 349 348 348 351 353 356 359 2
203 201 203 206 207 209 212 217 236 246 260 274 280 278 281 276 283 352 329 342 349 352 351 346 349 350 350 352 350 348 348 349 350 349 346 343 342 341 341 342 343 346 350
201 207 209 210 213 216 223 227 236 245 258 265 268 275 273 276 282 302 303 324 334 341 342 343 344 345 345 345 342 343 344 346 346 344 340 339 338 335 332 332 332 333 334
199 210 214 215 217 221 233 235 242 256 269 271 273 274 265 265 273 286 289 310 323 329 333 336 338 338 338 337 337 338 340 341 341 340 338 337 336 333 330 328 327 328 328
212 210 203 207 217 229 235 238 244 252 259 263 274 267 260 263 271 278 284 299 311 320 325 328 329 330 331 332 334 336 337 337 337 336 335 336 335 333 333 331 328 327 325
210 210 219 230 236 242 246 248 250 253 256 263 266 260 255 261 272 281 277 289 306 316 320 322 324 325 327 329 331 332 333 333 332 333 334 335 335 333 331 329 327 325 323
209 220 235 240 243 248 249 249 251 254 261 257 257 254 257 270 276 273 271 288 305 311 315 317 319 321 323 326 328 329 330 330 331 331 331 331 331 330 329 328 327 325 322
224 237 247 250 241 235 239 249 254 254 249 250 258 268 267 266 276 271 277 293 302 307 311 313 316 318 321 324 325 327 327 328 327 326 327 328 329 329 327 326 325 323 319
237 252 251 240 237 239 243 248 246 244 248 262 270 268 263 268 270 275 286 294 301 305 308 312 314 316 319 322 323 323 324 323 323 323 325 326 326 325 324 324 322 321 315
250 247 236 229 232 238 249 245 245 249 255 269 273 267 260 267 274 282 290 296 300 303 307 309 313 316 319 320 320 321 321 320 320 318 320 321 322 321 321 323 323 324 321
242 233 229 231 235 243 244 247 255 258 267 269 266 264 270 278 284 289 293 296 300 304 306 310 314 317 318 319 321 321 320 319 319 319 319 318 317 312 315 320 324 330 330
232 225 224 230 237 241 246 256 263 264 266 267 270 276 282 286 289 292 294 298 300 303 307 312 315 316 319 321 321 320 319 318 318 317 317 316 311 304 307 313 318 324 329